{"data":{"norad_id":63657,"intl_designator":"2025-083Z","name":"STARLINK-33789","alt_names":[],"object_type":"PAYLOAD","status":"ACTIVE","operator":null,"country":"US","launch_date":"2025-04-25","launch_site_code":"AFETR","launch_vehicle":null,"mission":null,"orbit_class":"UNKNOWN","rcs_meters":null,"size_class":null,"mass_kg":null,"dimensions":null,"purposes":["comms"],"wikipedia_slug":null,"has_3d_model":false,"image_url":null,"decayed_at":null,"tle_current":{"epoch":"2026-09-19T08:00:18.147168Z","epoch_age_seconds":253433,"freshness":"STALE","line1":"1 63657U 25083Z   26262.33354337  .00016522  00000+0  60838-3 0  9997","line2":"2 63657  43.0015 351.4818 0002110 282.7404  77.3211 15.27590418 79710","mean_motion":15.27590418,"eccentricity":0.000211,"inclination_deg":43.0015,"raan_deg":351.4818,"arg_perigee_deg":282.7404,"mean_anomaly_deg":77.3211,"bstar":0.00060838,"rev_number":7971,"period_min":94.266105824709,"perigee_km":481.57019729298,"apogee_km":484.46560466119,"semimajor_km":6861.1549009771,"source":"CELESTRAK","updated_at":"2026-09-21T09:00:35.055716Z"}}}